Weather History for Charlotte, NC

Change the Weather History Date:

Wednesday, June 19, 2013

  Actual Average Record
Temperature  
Mean Temperature 77 °F 76 °F  
Max Temperature 84 °F 87 °F 102 °F (1944)
Min Temperature 69 °F 66 °F 54 °F (1965)
Degree Days  
Heating Degree Days 0 0  
Month to date heating degree days 0 0  
Since 1 June heating degree days 0 0  
Since 1 July heating degree days 3221 3385  
Cooling Degree Days 12 11  
Month to date cooling degree days 205 176  
Year to date cooling degree days 374 339  
Since 1 June cooling degree days 205 176  
Growing Degree Days 26 (Base 50)    
Moisture  
Dew Point 65 °F    
Average Humidity 72    
Maximum Humidity 97    
Minimum Humidity 47    
Precipitation  
Precipitation 0.00 in 0.13 in 1.50 in (1995)
Month to date precipitation 6.27 2.48  
Year to date precipitation 25.02 19.44  
Snow  
Snow 0.00 in 0.00 in 0.00 in ()
Month to date snowfall 0.0 0.0  
Since 1 June snowfall 0.0 0.0  
Since 1 July snowfall 2.7 4.3  
Snow Depth 0.00 in    
Sea Level Pressure  
Sea Level Pressure 30.00 in    
Wind  
Wind Speed 5 mph (NE)    
Max Wind Speed 12 mph    
Max Gust Speed 21 mph    
Visibility 10 miles    
Events      
T = Trace of Precipitation, MM = Missing Value Source: NWS Daily Summary

Daily Weather History Graph

Daily Weather History Graph

Search for Another Location

Airport:

Trip Planner

Search our weather history database for the weather conditions in past years. The results will help you decide how hot, cold, wet, or windy it might be!

Date:

Astronomy

Jun. 19, 2013 Rise Set
Actual Time 6:09 AM EDT 8:41 PM EDT
Civil Twilight 5:39 AM EDT 9:11 PM EDT
Nautical Twilight 5:02 AM EDT 9:48 PM EDT
Astronomical Twilight 4:21 AM EDT 10:28 PM EDT
Moon 4:38 PM EDT (6/19) 2:45 AM EDT (6/19)
Length of Visible Light 15h 31m
Length of Day
14h 32m
Waxing Gibbous, 80% of the Moon is Illuminated
Jun 19
Waxing Gibbous
Jun 23
Full
Jun 30
Last Quarter
Jul 8
New
Jul 15
First Quarter

Hourly Weather History & Observations

Time (EDT) Temp. Heat Index Dew Point Humidity Pressure Visibility Wind Dir Wind Speed Gust Speed Precip Events Conditions
12:52 AM 71.1 °F - 68.0 °F 90% 29.91 in 10.0 mi NNE 6.9 mph - N/A   Overcast
1:52 AM 70.0 °F - 68.0 °F 93% 29.91 in 10.0 mi North 5.8 mph - N/A   Overcast
2:52 AM 70.0 °F - 68.0 °F 93% 29.90 in 10.0 mi North 5.8 mph - N/A   Overcast
3:52 AM 71.1 °F - 68.0 °F 90% 29.91 in 10.0 mi Calm Calm - N/A   Overcast
4:52 AM 70.0 °F - 68.0 °F 93% 29.91 in 10.0 mi North 3.5 mph - N/A   Overcast
5:52 AM 70.0 °F - 68.0 °F 93% 29.94 in 10.0 mi North 3.5 mph - N/A   Overcast
6:52 AM 70.0 °F - 66.9 °F 90% 29.96 in 10.0 mi NNE 3.5 mph - N/A   Overcast
7:52 AM 72.0 °F - 66.9 °F 84% 29.99 in 10.0 mi North 6.9 mph - N/A   Overcast
8:52 AM 73.0 °F - 66.0 °F 79% 30.00 in 10.0 mi Calm Calm - N/A   Scattered Clouds
9:52 AM 75.0 °F - 64.0 °F 69% 30.01 in 10.0 mi Variable 5.8 mph - N/A   Mostly Cloudy
10:52 AM 78.1 °F - 66.0 °F 66% 30.01 in 10.0 mi North 8.1 mph - N/A   Mostly Cloudy
11:52 AM 80.1 °F 81.5 °F 63.0 °F 56% 30.02 in 10.0 mi Variable 5.8 mph - N/A   Overcast
12:52 PM 80.1 °F 81.2 °F 62.1 °F 54% 30.02 in 10.0 mi ENE 8.1 mph - N/A   Mostly Cloudy
1:52 PM 82.0 °F 83.0 °F 62.1 °F 51% 30.02 in 10.0 mi Calm Calm - N/A   Mostly Cloudy
2:52 PM 82.0 °F 83.0 °F 62.1 °F 51% 30.02 in 10.0 mi Variable 6.9 mph - N/A   Mostly Cloudy
3:52 PM 82.0 °F 82.4 °F 60.1 °F 47% 30.00 in 10.0 mi NE 8.1 mph - N/A   Mostly Cloudy
4:52 PM 81.0 °F 81.7 °F 61.0 °F 50% 30.00 in 10.0 mi Variable 6.9 mph - N/A   Overcast
5:52 PM 80.1 °F 81.1 °F 61.0 °F 52% 30.01 in 10.0 mi East 6.9 mph - N/A   Mostly Cloudy
6:52 PM 80.1 °F 81.2 °F 62.1 °F 54% 30.03 in 10.0 mi East 5.8 mph - N/A   Mostly Cloudy
7:52 PM 80.1 °F 81.5 °F 63.0 °F 56% 30.04 in 10.0 mi NE 6.9 mph - N/A   Mostly Cloudy
8:52 PM 77.0 °F - 64.0 °F 64% 30.05 in 10.0 mi ENE 6.9 mph - N/A   Scattered Clouds
9:52 PM 75.9 °F - 64.9 °F 69% 30.08 in 10.0 mi East 5.8 mph - N/A   Scattered Clouds
10:52 PM 75.9 °F - 64.9 °F 69% 30.09 in 10.0 mi East 6.9 mph - N/A   Scattered Clouds
11:52 PM 73.9 °F - 64.9 °F 73% 30.11 in 10.0 mi East 3.5 mph - N/A   Partly Cloudy